Location: ????? ??????
(37.8317°N, 23.8750°E)
Time: 13:09:00
(UTC+00:00)

Cosmos 2279 Rocket - Pass Details

Date: 20 January 2021
Orbit: 963 x 979 km, 82.9° (Epoch: 03 March)

Event Time Altitude Azimuth Distance (km) Brightness Sun altitude
Rises 16:12:37 0° 354° (N) 3,689 6.9 -7.8°
Reaches altitude 10° 16:15:09 10° 357° (N) 2,736 6.2 -8.2°
Maximum altitude 16:21:26 76° 83° (E) 1,008 4.0 -9.4°
Drops below altitude 10° 16:27:39 10° 169° (S) 2,712 6.4 -10.6°
Sets 16:30:09 0° 171° (S) 3,653 7.1 -11.0°
